User: anonymous   Login
Location: Unspecified
(0.0000°N, 0.0000°E)
Time: 01:11:28
(UTC+00:00)
Language:

OBJECT NZ - Orbit

View from above orbital plane
View from above orbital plane
View from above satellite
View from above satellite

Ground track
Ground track

The orbit data is extracted from the following two-line orbital elements,

1 43551U 98067NZ  19047.74217094 +.00010149 +00000-0 +13234-3 0  9994
2 43551 051.6372 235.1153 0005852 052.8663 307.2864 15.59358689034022
Epoch (UTC): 16 February 2019 17:48:43
Eccentricity: 0.0005852
inclination: 51.6372°
perigee height: 385 km
apogee height: 393 km
right ascension of ascending node: 235.1153°
argument of perigee: 52.8663°
revolutions per day: 15.59358689
mean anomaly at epoch: 307.2864°
orbit number at epoch: 3402

The dashed part of the orbit path shows where the satellite is in the earth's shadow,  

DLR